Regional Weather Roundup
Issued by NWS

Home | Current Version | Previous Version | Text Only | Print | Product List | Glossary On
Versions: 1 2 3 4 5 6 7 8 9 10 11 12 13 14 15 16 17 18 19 20 21 22 23 24 25 26 27 28 29 30 31 32 33 34 35 36 37 38 39 40 41 42 43 44 45 46 47 48 49 50
000
ASUS45 KPSR 300410
RWRAZ

ARIZONA REGIONAL HOURLY WEATHER ROUNDUP
NATIONAL WEATHER SERVICE PHOENIX AZ
900 PM MST FRI AUG 29 2014

NOTE: FAIR INDICATES FEW OR NO CLOUDS BELOW 12,000 FEET WITH NO
SIGNIFICANT WEATHER AND/OR OBSTRUCTIONS TO VISIBILITY.

AZZ001>003-036-300500-
NORTHWEST ARIZONA

CITY           SKY/WX    TMP DP  RH WIND       PRES   REMARKS
BULLHEAD CITY  MOCLDY    95  37  13 E6        29.71R
KINGMAN        PTCLDY    81  33  17 S10       29.95R
$$

AZZ004>008-015-016-018-300500-
NORTH CENTRAL ARIZONA

CITY           SKY/WX    TMP DP  RH WIND       PRES   REMARKS
GRAND CANYON     N/A    N/A N/A N/A MISG        N/A
WILLIAMS       PTCLDY    61  45  55 S7        30.29R
PRESCOTT       PTCLDY    70  47  43 S8        30.09R
FLAGSTAFF      PTCLDY    56  43  61 CALM      30.28R
PAYSON         CLEAR     77  37  24 NE6       30.12R
PAGE           CLOUDY    81  35  19 CALM      30.02R
$$

AZZ009>014-017-300500-
NORTHEAST ARIZONA

CITY           SKY/WX    TMP DP  RH WIND       PRES   REMARKS
WINSLOW        CLEAR     67  49  52 CALM      30.09S
SAINT JOHNS    CLEAR     71  42  35 W8        30.14R
WINDOW ROCK    PTCLDY    60  31  33 SW5       30.24R
SHOW LOW       CLEAR     64  37  36 CALM      30.23R
$$

AZZ023-300500-
GREATER PHOENIX AREA

CITY           SKY/WX    TMP DP  RH WIND       PRES   REMARKS
PHOENIX        CLEAR     97  43  15 SW6       29.73R
BUCKEYE          N/A     88  57  35 NE6       29.74S
LUKE AFB       NOT AVBL
DEER VALLEY    CLEAR     95  41  15 CALM      29.77R
SCOTTSDALE     CLEAR     97  43  15 CALM      29.78R
MESA-GATEWAY   CLEAR     97  43  15 SW7       29.78R
CHANDLER       CLEAR     93  43  17 S8        29.76R
$$

AZZ027-028-300500-
SOUTHWEST MARICOPA COUNTY AND PINAL COUNTY

CITY           SKY/WX    TMP DP  RH WIND       PRES   REMARKS
CASA GRANDE    CLEAR     91  39  16 CALM      29.79R
$$

AZZ503-504-507>509-300500-
SOUTHEAST ARIZONA

CITY           SKY/WX    TMP DP  RH WIND       PRES   REMARKS
TUCSON         CLEAR     90  40  17 SW3       29.90R
DAVIS-MONTHAN  CLEAR     88  37  16 VRB1      29.87R
NOGALES        CLEAR     73  54  51 E8        30.00R
SIERRA VISTA   CLEAR     77  46  33 SW9       30.07R
DOUGLAS        CLEAR     76  47  35 CALM      30.02R
SAFFORD        CLEAR     82  46  28 N5        29.91R
$$

AZZ020-021-025-026-031-300500-
SOUTHWEST ARIZONA

CITY           SKY/WX    TMP DP  RH WIND       PRES   REMARKS
YUMA           CLEAR     99  42  14 SW3       29.67R
$$

CAZ031-033-041-043-047-048-061-300500-
SOUTHERN CALIFORNIA

CITY           SKY/WX    TMP DP  RH WIND       PRES   REMARKS
DOWNTOWN L.A.  CLEAR     71  62  73 CALM      29.82R
L.A. AIRPORT   CLEAR     68  62  81 SW5       29.83R
SAN DIEGO      PTCLDY    71  64  78 NW7       29.85R
BURBANK        CLEAR     77  57  50 SE5       29.83R
ONTARIO        CLEAR     79  58  48 W8        29.84R
RIVERSIDE      CLEAR     78  54  43 W5        29.84R
PALM SPRINGS   CLEAR    102  41  12 NW9       29.71R
EL CENTRO NAS  CLEAR     97  49  19 SW12      29.66R
IMPERIAL       CLEAR     99  47  17 SW9       29.65R
BLYTHE         CLEAR     96  42  15 W5        29.68R
NEEDLES        PTCLDY    97  33  10 W7        29.72R
$$

NVZ020-UTZ003-300500-
SOUTHERN NEVADA-UTAH

CITY           SKY/WX    TMP DP  RH WIND       PRES   REMARKS
LAS VEGAS      PTCLDY    98  31   9 S15       29.77R
SALT LAKE CITY MOCLDY    76  41  28 SE9       29.95S
$$

NMZ009-TXZ055-300500-
NEW MEXICO-WEST TEXAS

CITY           SKY/WX    TMP DP  RH WIND       PRES   REMARKS
ALBUQUERQUE    CLEAR     72  43  35 E8        30.13R
EL PASO        PTCLDY    86  44  23 CALM      30.00R
$$


........................KEY........................
SKY/WX - SKY CONDITION/WEATHER
TMP    - TEMPERATURE IN FAHRENHEIT
DP     - DEW POINT IN FAHRENHEIT
RH     - RELATIVE HUMIDITY IN PERCENT
WIND   - DIRECTION AND SPEED IN MILES PER HOUR (MPH)
VRB    - VARIABLE WIND DIRECTION
PRES   - MEAN SEA LEVEL PRESSURE IN INCHES OF MERCURY
         F - FALLING PRESSURE   R - RISING PRESSURE
         S - STEADY PRESSURE
VSB    - VISIBILITY IN MILES
HX     - HEAT INDEX IN FAHRENHEIT
WCI    - WIND CHILL INDEX IN FAHRENHEIT
TC     - TEMPERATURE IN CELSIUS WHICH IS ALSO KNOWN AS
         TEMPERATURE IN CENTIGRADE
AFB    - AIR FORCE BASE
         LUKE AFB IS LUKE AIR FORCE BASE
         DAVIS-MONTHAN IS DAVIS-MONTHAN AIR FORCE BASE
NAS    - NAVAL AIR STATION
         EL CENTRO NAS IS EL CENTRO NAVAL AIR STATION
N/A    - NOT AVAILABLE


USA.gov is the U.S. government's official web portal to all federal, state and local government web resources and services.